[[{"header":{"parameterUnit":"m.s-1","parameterCategory":1,"la1":30.2991,"la2":30.254,"lo1":-89.0895,"lo2":-89.0444,"dy":0.0017,"dx":0.0017,"nx":28,"ny":28,"refTime":"2025-03-07T09:00:00:Z","depth":0,"parameterNumber":2,"parameterNumberName":"U-component_of_WINDS"},"data":[0,0,0,0,0,0,0,0,0,0,0,0,0,0,0,0,0,0,0,0,0,0,0,0,0,0,0,0,0,0,0,0,0,0,0,0,0,0,0,0,0,0,0,0,0,0,0,0,0,0,0,0,0,0,0,0,0,0,-2.7362,-2.7363,0,-2.7437,-2.7438,-2.7438,-2.7475,-2.7475,-2.7475,-2.7475,-2.7547,-2.7549,-2.755,0,0,0,0,0,0,0,0,0,0,0,0,0,-2.7247,-2.7249,-2.7362,-2.7363,-2.7364,-2.7437,-2.7438,-2.7439,-2.7475,-2.7475,-2.7475,-2.7475,-2.7546,-2.7548,-2.7551,0,0,0,0,0,0,0,0,0,0,0,0,0,-2.7306,-2.7249,-2.7362,-2.7391,-2.7395,-2.7436,-2.7438,-2.7439,-2.7475,-2.7475,-2.7475,-2.7475,-2.7545,-2.7548,-2.7551,-2.7568,0,0,-2.756,-2.7561,0,0,0,0,0,0,0,0,-2.7303,-2.7311,-2.7386,-2.7389,-2.7393,-2.7447,-2.7423,-2.7482,-2.7475,-2.7444,-2.7475,-2.7475,-2.7513,-2.7519,-2.7532,-2.7571,-2.7574,-2.756,-2.7562,-2.7563,-2.7564,0,0,0,0,0,0,0,-2.7299,-2.7308,-2.7392,-2.7387,-2.7391,-2.7399,-2.7407,-2.7434,-2.7478,-2.7447,-2.745,-2.7459,-2.7515,-2.753,-2.7534,-2.7576,-2.756,-2.7562,-2.7564,-2.7565,-2.7631,-2.7631,0,0,0,0,0,0,-2.7291,-2.7304,-2.7389,-2.7394,-2.7347,-2.7401,-2.741,-2.7429,-2.7478,-2.7485,-2.7458,-2.746,-2.7525,-2.7531,-2.7537,-2.756,-2.7563,-2.7565,-2.7567,-2.7631,-2.7631,-2.7631,0,0,0,0,0,0,-2.7288,-2.7298,-2.7386,-2.735,-2.7362,-2.7403,-2.7424,-2.7431,-2.7446,-2.7486,-2.7493,-2.7466,-2.7525,-2.7533,-2.756,-2.7563,-2.7567,-2.7569,-2.7631,-2.7631,-2.7631,-2.7605,0,0,0,0,0,0,-2.7285,-2.7297,-2.7305,-2.735,-2.7363,-2.741,-2.7424,-2.7432,-2.7451,-2.7454,-2.7495,-2.7502,-2.7526,-2.7556,-2.7563,-2.7567,-2.7572,-2.7631,-2.7631,-2.7631,-2.7606,-2.7605,-2.7603,0,0,0,0,0,-2.728,-2.7294,-2.7305,-2.7316,-2.7375,-2.741,-2.7418,-2.7446,-2.7451,-2.7459,-2.7484,-2.75,-2.7561,-2.7558,-2.7567,-2.7571,-2.7631,-2.7631,-2.7631,-2.7607,-2.7605,-2.7603,0,0,0,0,0,0,-2.7248,-2.7301,-2.7314,-2.7343,-2.7372,-2.7416,-2.7427,-2.7443,-2.747,-2.7472,-2.7504,-2.7513,-2.7537,-2.7557,-2.7553,-2.759,-2.7597,-2.7599,-2.7576,-2.7575,-2.7573,-2.7568,-2.7574,0,0,0,0,0,-2.7244,-2.727,-2.7314,-2.7335,-2.7349,-2.7385,-2.7402,-2.7421,-2.7452,-2.7464,-2.7492,-2.7519,-2.7545,-2.7561,-2.7586,-2.7609,-2.7618,-2.7616,-2.7615,-2.7613,-2.7614,-2.7627,-2.7626,-2.7631,-2.7631,-2.7631,0,0,-2.7237,-2.7269,-2.7283,-2.733,-2.7354,-2.7378,-2.7395,-2.742,-2.7438,-2.7467,-2.7495,-2.7516,-2.7549,-2.7574,-2.7586,-2.7591,-2.7615,-2.7613,-2.7612,-2.7614,-2.7627,-2.7626,-2.7626,-2.7631,-2.7631,-2.7631,0,0,-2.7235,-2.7263,-2.7283,-2.7308,-2.7345,-2.7369,-2.7373,-2.7415,-2.7431,-2.7459,-2.7481,-2.7502,-2.7545,-2.7567,-2.7584,-2.759,-2.7605,-2.7597,-2.7589,-2.7601,-2.7601,-2.76,-2.7602,-2.7602,-2.7598,-2.7598,-2.7598,0,-2.7221,-2.726,-2.7291,-2.7315,-2.7334,-2.7363,-2.7383,-2.7404,-2.7447,-2.7459,-2.7464,-2.7518,-2.7543,-2.7573,-2.7574,-2.7587,-2.7592,-2.7593,-2.7598,-2.7598,-2.7599,-2.76,-2.7601,-2.7597,-2.7597,-2.7597,-2.7597,0,-2.724,-2.7266,-2.7278,-2.732,-2.7341,-2.7362,-2.7395,-2.7412,-2.7429,-2.7451,-2.7479,-2.7509,-2.754,-2.7549,-2.7565,-2.7581,-2.7582,-2.7592,-2.7601,-2.7597,-2.7599,-2.76,-2.7595,-2.7595,-2.7596,-2.7596,0,0,-2.7222,-2.728,-2.7284,-2.7303,-2.7346,-2.7366,-2.7388,-2.742,-2.7433,-2.7461,-2.7479,-2.7515,-2.7524,-2.7543,-2.7562,-2.7572,-2.7574,-2.7581,-2.7582,-2.7579,-2.7592,-2.7584,-2.7584,-2.7584,-2.7584,-2.7585,-2.7589,0,-2.7226,-2.7269,-2.7297,-2.7328,-2.7351,-2.7378,-2.7396,-2.7423,-2.7445,-2.7467,-2.7489,-2.7514,-2.7524,-2.7536,-2.7547,-2.7571,-2.7577,-2.7571,-2.76,-2.7601,-2.7591,-2.7585,-2.7578,-2.758,-2.759,-2.759,-2.759,0,-2.7238,-2.7267,-2.73,-2.7339,-2.735,-2.7367,-2.7398,-2.7419,-2.7449,-2.7464,-2.7485,-2.7504,-2.7526,-2.7532,-2.7563,-2.7558,-2.7571,-2.7585,-2.7585,-2.7589,-2.7595,-2.7589,-2.7582,-2.7582,-2.7592,-2.7592,-2.7591,0,-2.7221,-2.7267,-2.7293,-2.7309,-2.7355,-2.7366,-2.7385,-2.7416,-2.7433,-2.7459,-2.7471,-2.7499,-2.7514,-2.7534,-2.756,-2.7562,-2.7587,-2.7596,-2.7599,-2.7598,-2.7603,-2.7603,-2.7598,-2.7612,-2.7612,-2.7612,-2.7612,0,-2.7223,-2.7243,-2.7286,-2.7302,-2.7324,-2.7354,-2.7374,-2.7396,-2.7422,-2.7441,-2.7465,-2.7482,-2.7515,-2.7536,-2.7556,-2.7577,-2.7584,-2.7595,-2.76,-2.7593,-2.7592,-2.7602,-2.7603,-2.7612,-2.7612,-2.7612,-2.7612,0,-2.7208,-2.7238,-2.7268,-2.7309,-2.732,-2.7334,-2.7369,-2.7384,-2.7406,-2.743,-2.7437,-2.7471,-2.7496,-2.7524,-2.7558,-2.7571,-2.7592,-2.7599,-2.7582,-2.7585,-2.7586,-2.7586,-2.7589,-2.759,-2.7602,-2.7602,-2.7602,0,-2.7208,-2.7224,-2.7267,-2.7282,-2.7301,-2.7325,-2.7343,-2.7372,-2.739,-2.7425,-2.7435,-2.7463,-2.7486,-2.7525,-2.7552,-2.7578,-2.7586,-2.7585,-2.759,-2.7582,-2.7585,-2.7584,-2.7585,-2.7583,-2.7583,-2.7583,-2.7583,0,-2.7204,-2.7218,-2.7244,-2.7274,-2.7295,-2.7319,-2.7345,-2.7356,-2.739,-2.7408,-2.7435,-2.7453,-2.7488,-2.7514,-2.7543,-2.7561,-2.7577,-2.7581,-2.7583,-2.7576,-2.7565,-2.7571,-2.7578,-2.7581,-2.7581,-2.7581,-2.7581,-2.7581,-2.7197,-2.7211,-2.7244,-2.7271,-2.7293,-2.7316,-2.7333,-2.7357,-2.738,-2.7412,-2.7427,-2.7454,-2.7482,-2.7523,-2.754,-2.756,-2.7565,-2.7568,-2.7569,-2.7569,-2.7567,-2.7562,-2.7566,-2.7566,-2.7566,-2.7566,-2.7566,0,-2.7194,-2.7216,-2.7241,-2.7276,-2.7297,-2.7311,-2.7339,-2.7355,-2.7379,-2.7404,-2.7427,-2.7457,-2.7482,-2.751,-2.7537,-2.7547,-2.7555,-2.7553,-2.7553,-2.7557,-2.7562,-2.7557,-2.7546,-2.7546,-2.7546,-2.7546,-2.7546,-2.7546,-2.7195,-2.7221,-2.7238,-2.7274,-2.7295,-2.7322,-2.7337,-2.7358,-2.7378,-2.7411,-2.7433,-2.7451,-2.7477,-2.7506,-2.7529,-2.7537,-2.7545,-2.7541,-2.755,-2.7555,-2.7556,-2.7558,-2.7554,-2.7543,-2.7543,-2.7544,-2.7544,-2.7544]},{"header":{"parameterUnit":"m.s-1","parameterCategory":1,"la1":30.2991,"la2":30.254,"lo1":-89.0895,"lo2":-89.0444,"dy":0.0017,"dx":0.0017,"nx":28,"ny":28,"refTime":"2025-03-07T09:00:00:Z","depth":0,"parameterNumber":3,"parameterNumberName":"V-component_of_WINDS"},"data":[0,0,0,0,0,0,0,0,0,0,0,0,0,0,0,0,0,0,0,0,0,0,0,0,0,0,0,0,0,0,0,0,0,0,0,0,0,0,0,0,0,0,0,0,0,0,0,0,0,0,0,0,0,0,0,0,0,0,3.7608,3.7609,0,3.772,3.7721,3.7722,3.7713,3.7711,3.771,3.7708,3.782,3.7824,3.7828,0,0,0,0,0,0,0,0,0,0,0,0,0,3.7385,3.7389,3.7608,3.7609,3.7611,3.7719,3.7721,3.7723,3.7713,3.7711,3.7709,3.7707,3.7818,3.7823,3.7829,0,0,0,0,0,0,0,0,0,0,0,0,0,3.7488,3.7391,3.7607,3.7619,3.7621,3.7719,3.7721,3.7723,3.7714,3.7711,3.7709,3.7706,3.7816,3.7823,3.783,3.7922,0,0,3.785,3.7853,0,0,0,0,0,0,0,0,3.7482,3.7496,3.7616,3.7619,3.7621,3.77,3.7683,3.779,3.7714,3.7679,3.7708,3.7705,3.7782,3.7791,3.7817,3.7927,3.7932,3.7851,3.7855,3.7858,3.786,0,0,0,0,0,0,0,3.7475,3.7491,3.7652,3.7618,3.7621,3.7619,3.763,3.7703,3.7743,3.7682,3.7681,3.7695,3.7782,3.7811,3.782,3.7934,3.7851,3.7857,3.7861,3.7864,3.8129,3.8132,0,0,0,0,0,0,3.7466,3.7485,3.7648,3.7655,3.7544,3.7625,3.7638,3.7677,3.7742,3.7749,3.7697,3.7694,3.7801,3.7812,3.7824,3.794,3.7858,3.7864,3.7868,3.8126,3.8129,3.8133,0,0,0,0,0,0,3.7461,3.748,3.7644,3.757,3.7591,3.7631,3.7675,3.7681,3.7709,3.7754,3.776,3.7719,3.7799,3.7814,3.7899,3.7943,3.7867,3.7874,3.8122,3.8127,3.8131,3.817,0,0,0,0,0,0,3.7454,3.7478,3.7514,3.7571,3.7595,3.7717,3.7678,3.7685,3.7721,3.7719,3.7776,3.7783,3.7798,3.7889,3.7906,3.7951,3.7879,3.8119,3.8124,3.813,3.8165,3.8175,3.8184,0,0,0,0,0,3.7446,3.7519,3.7516,3.7536,3.764,3.772,3.7733,3.775,3.7725,3.7761,3.779,3.7781,3.7935,3.7897,3.7916,3.7965,3.8116,3.8123,3.8129,3.816,3.8173,3.8183,0,0,0,0,0,0,3.7464,3.7526,3.7524,3.7617,3.7664,3.7718,3.7764,3.7762,3.7816,3.7811,3.7829,3.7842,3.7928,3.7954,3.7911,3.8059,3.8022,3.8033,3.8039,3.8052,3.8061,3.8054,3.7885,0,0,0,0,0,3.7479,3.7539,3.759,3.7667,3.7691,3.7724,3.7759,3.7768,3.7817,3.7836,3.7871,3.7917,3.7977,3.8015,3.8072,3.8168,3.8182,3.821,3.822,3.8227,3.8237,3.8293,3.8308,3.8155,3.8154,3.8154,0,0,3.751,3.7551,3.7588,3.7672,3.7709,3.7771,3.774,3.7806,3.7853,3.7845,3.7929,3.7956,3.8009,3.8101,3.8143,3.8126,3.8283,3.8236,3.8242,3.8247,3.8302,3.8316,3.8329,3.8159,3.8158,3.8158,0,0,3.7598,3.7635,3.7705,3.7744,3.7801,3.7823,3.784,3.7896,3.7915,3.7999,3.7996,3.8051,3.8152,3.8191,3.8224,3.8331,3.8326,3.8349,3.8399,3.8454,3.8466,3.8477,3.8518,3.8532,3.8358,3.8358,3.8358,0,3.7629,3.7724,3.7741,3.781,3.7848,3.7846,3.7918,3.7954,3.8026,3.8053,3.8032,3.8162,3.8197,3.83,3.8326,3.8352,3.8373,3.8343,3.8463,3.8474,3.8484,3.8524,3.8539,3.8361,3.8361,3.836,3.836,0,3.7761,3.7826,3.7876,3.7949,3.7992,3.8061,3.809,3.8132,3.8138,3.8162,3.8249,3.8292,3.8359,3.8384,3.8389,3.8488,3.8476,3.8459,3.8422,3.8502,3.8539,3.8554,3.8365,3.8364,3.8363,3.8362,0,0,3.7863,3.7947,3.7965,3.8,3.8064,3.8115,3.8185,3.8253,3.829,3.8339,3.84,3.8487,3.8473,3.8511,3.852,3.8568,3.8654,3.8546,3.8547,3.8567,3.877,3.8784,3.8802,3.8651,3.8654,3.8656,3.8767,0,3.7961,3.8087,3.8106,3.8217,3.8279,3.8279,3.8341,3.8387,3.8412,3.8469,3.8495,3.8558,3.8533,3.8557,3.8603,3.8634,3.8696,3.8626,3.8708,3.8711,3.8698,3.8821,3.8835,3.8938,3.8781,3.8783,3.8785,0,3.8091,3.8149,3.8267,3.8326,3.8353,3.8408,3.8473,3.8526,3.8579,3.8594,3.8638,3.8643,3.8717,3.8676,3.8779,3.8731,3.8766,3.8786,3.879,3.8801,3.8755,3.8837,3.8971,3.8987,3.8808,3.8806,3.8804,0,3.8159,3.8264,3.835,3.8379,3.8449,3.8489,3.8519,3.857,3.8611,3.8667,3.8694,3.8757,3.8792,3.8841,3.8864,3.8832,3.8966,3.8927,3.8982,3.8982,3.9012,3.901,3.9156,3.903,3.903,3.903,3.9029,0,3.8267,3.834,3.8381,3.8434,3.8516,3.8538,3.8618,3.8648,3.8694,3.8753,3.8755,3.881,3.8835,3.8894,3.8912,3.8996,3.9011,3.9026,3.9031,3.9028,3.9026,3.9052,3.9047,3.9034,3.9033,3.9032,3.9031,0,3.8357,3.8387,3.8481,3.8541,3.8558,3.8616,3.8667,3.8719,3.8744,3.8819,3.8837,3.8877,3.8947,3.8974,3.9058,3.907,3.9169,3.9166,3.9152,3.9153,3.9209,3.9204,3.9379,3.9404,3.9258,3.926,3.9261,0,3.8425,3.8482,3.8549,3.859,3.8623,3.8688,3.873,3.8753,3.8797,3.8864,3.8908,3.8978,3.9036,3.9148,3.9184,3.9249,3.925,3.9306,3.9259,3.9256,3.9254,3.9252,3.9259,3.9316,3.9317,3.9318,3.9319,0,3.8545,3.8558,3.8619,3.8687,3.8738,3.8792,3.8844,3.8877,3.8909,3.8958,3.9031,3.9076,3.9164,3.9235,3.9303,3.9334,3.9333,3.9334,3.9351,3.9349,3.934,3.9349,3.9178,3.933,3.9329,3.9328,3.9327,3.9327,3.8628,3.868,3.8737,3.8806,3.8849,3.8898,3.8951,3.8984,3.9046,3.9121,3.913,3.9209,3.9263,3.9355,3.939,3.9452,3.9437,3.946,3.9467,3.9473,3.9479,3.9329,3.9464,3.9463,3.9463,3.9463,3.9463,0,3.8751,3.8788,3.8852,3.8927,3.8982,3.8977,3.9035,3.9081,3.9151,3.9202,3.926,3.9345,3.9414,3.9457,3.9527,3.9568,3.957,3.9586,3.9585,3.9593,3.9487,3.9467,3.9584,3.9584,3.9584,3.9584,3.9584,3.9584,3.8822,3.8911,3.8931,3.9041,3.9077,3.9156,3.9191,3.9237,3.9279,3.9374,3.9433,3.946,3.9509,3.9582,3.9646,3.9657,3.9683,3.9702,3.9711,3.9612,3.96,3.9588,3.9569,3.9706,3.9707,3.9813,3.9814,3.9814]}]]